Overview Statistics Trail Chart Weather Telemetry Raw packets
 

This is the latest recevied weather packets stored in our database for station/object EA4CZ-7. If no packets are shown the sender has not sent any weather packets the latest 10 day(s).

<< 1 2 3 4 5 6 >>
Time Temp. Humidity Pressure Rain* Wind** Luminosity Snow
1788228398 28.33° C 35% 1010.3 hPa - - - -
1788228097 28.33° C 35% 1010.2 hPa - - - -
1788227497 28.33° C 34% 1010.2 hPa - - - -
1788227197 28.33° C 35% 1010.2 hPa - - - -
1788226598 28.33° C 34% 1010.3 hPa - - - -
1788226298 28.33° C 34% 1010.6 hPa - - - -
1788225998 28.33° C 34% 1010.7 hPa - - - -
1788225698 28.33° C 34% 1010.7 hPa - - - -
1788225397 28.33° C 33% 1010.7 hPa - - - -
1788223887 28.33° C 34% 1010.9 hPa - - - -
1788222087 28.33° C 34% 1011.1 hPa - - - -
1788221187 28.89° C 33% 1011.2 hPa - - - -
1788220587 28.33° C 33% 1011.3 hPa - - - -
1788220287 28.33° C 33% 1011.4 hPa - - - -
1788219687 28.89° C 33% 1011.5 hPa - - - -
1788219387 28.33° C 33% 1011.5 hPa - - - -
1788218487 28.89° C 33% 1011.5 hPa - - - -
1788217887 28.89° C 33% 1011.5 hPa - - - -
1788217587 28.89° C 32% 1011.5 hPa - - - -
1788217287 28.89° C 32% 1011.5 hPa - - - -
1788216686 28.89° C 32% 1011.3 hPa - - - -
1788210950 29.44° C 30% 1010.8 hPa - - - -
1788207863 36.11° C 24% 1010.2 hPa - - - -
1788207563 36.67° C 24% 1010.2 hPa - - - -
1788206664 38.89° C 23% 1009.9 hPa - - - -

* Rain since midnight (hover to see other rain measurements)
** Current wind speed in m/s (hover to see current wind gust speed)